This demonstration page uses our WeatherBlox Daily Observations layout. Learn more.

Left ArrowRight Arrow

39.51506, -84.39828

Hourly Observations for June 15, 2019

Temp ( °F °C ) Dew Point ( °F °C ) Humidity (%) Winds ( mph kmh ) Pressure ( in mb ) Visibility ( mi km ) Precip ( " mm )
12:15 am 00:15 Partly Cloudy 67 19.3 51 10.5 57 57 SSW 6 9 30.00 1016 10 16 N/A
12:35 am 00:35 Cloudy 67 19.5 51 10.3 55 55 SSW 7 11 30.01 1016 10 16 N/A
12:55 am 00:55 Cloudy with Light Rain 65 18.6 52 11.1 62 62 SW 8 13 30.01 1016 10 16 N/A
1:15 am 01:15 Cloudy 65 18.6 52 11.2 62 62 SW 3 6 30.02 1017 10 16 N/A
1:35 am 01:35 Cloudy 63 17.2 55 13 76 76 N N/A 30.03 1017 10 16 N/A
1:55 am 01:55 Cloudy 62 16.4 58 14.2 87 87 SW 3 6 30.02 1017 10 16 N/A
2:15 am 02:15 Cloudy 61 16.1 58 14.6 91 91 SW 5 7 30.02 1017 10 16 N/A
2:35 am 02:35 Cloudy 65 18.1 53 11.4 65 65 SSW 6 9 30.01 1016 10 16 N/A
2:55 am 02:55 Cloudy with Light Rain 63 17.2 55 12.6 75 75 SW 6 9 30.01 1016 10 16 N/A
3:15 am 03:15 Cloudy 63 17.3 55 12.8 75 75 SW 3 6 30.00 1016 10 16 N/A
3:35 am 03:35 Cloudy 61 16.3 57 14 86 86 SW 3 6 30.00 1016 10 16 N/A
3:55 am 03:55 Cloudy 62 16.6 56 13.4 82 82 SW 5 7 30.00 1016 10 16 N/A
4:15 am 04:15 Cloudy 62 16.7 57 13.8 83 83 N N/A 30.00 1016 10 16 N/A
4:35 am 04:35 Cloudy 62 16.6 57 13.8 84 84 SW 5 7 30.00 1016 10 16 N/A
4:55 am 04:55 Cloudy 64 17.8 53 11.7 68 68 SSW 6 9 29.99 1016 10 16 N/A
5:15 am 05:15 Cloudy 64 18 53 11.4 66 66 SSW 7 11 29.99 1016 10 16 N/A
5:35 am 05:35 Cloudy 64 18 53 11.4 66 66 SSW 7 11 30.00 1016 10 16 N/A
5:55 am 05:55 Partly Cloudy 64 17.9 53 11.4 66 66 SSW 7 11 30.00 1016 10 16 N/A
6:15 am 06:15 Cloudy with Light Rain 63 17 55 12.8 76 76 WSW 5 7 30.01 1016 10 16 N/A
6:35 am 06:35 Cloudy with Light Rain 62 16.7 56 13.1 79 79 N N/A 30.01 1016 10 16 N/A
6:55 am 06:55 Cloudy with Light Rain 60 15.8 58 14.5 92 92 N N/A 30.01 1016 10 16 N/A
7:15 am 07:15 Partly Cloudy 61 16.2 58 14.7 91 91 N N/A 30.00 1016 10 16 N/A
7:35 am 07:35 Cloudy with Light Rain 62 16.9 56 13.4 80 80 SSW 7 11 30.00 1016 10 16 N/A
7:55 am 07:55 Cloudy with Light Rain 63 17 57 13.8 82 82 SSW 3 6 29.99 1016 10 16 N/A
8:15 am 08:15 Cloudy with Light Rain 63 17.2 57 13.9 81 81 SW 6 9 30.00 1016 10 16 N/A
8:35 am 08:35 Cloudy with Light Rain 64 17.7 57 14 79 79 SW 8 13 30.00 1016 10 16 N/A
8:55 am 08:55 Sunny 66 18.9 59 14.8 77 77 SW 6 9 30.00 1016 10 16 N/A
9:15 am 09:15 Sunny 68 19.9 57 14.1 69 69 SSW 7 11 29.97 1015 10 16 N/A
9:35 am 09:35 Partly Cloudy 69 20.4 57 13.9 66 66 SSW 15 24 29.97 1015 10 16 N/A
9:55 am 09:55 Cloudy with Light Rain 69 20.4 59 14.9 71 71 SW 10 17 29.97 1015 10 16 N/A
10:15 am 10:15 Cloudy with Light Rain 68 19.8 59 14.9 74 74 SW 9 15 29.98 1015 10 16 N/A
10:35 am 10:35 Partly Cloudy 68 20.2 60 15.3 74 74 SW 10 17 29.97 1015 10 16 N/A
10:55 am 10:55 Sunny 69 20.6 60 15.8 74 74 SW 8 13 29.97 1015 10 16 N/A
11:15 am 11:15 Mostly Cloudy 69 20.8 60 15.3 71 71 SW 13 20 29.97 1015 10 16 N/A
11:35 am 11:35 Sunny 69 20.8 59 14.9 69 69 SW 14 22 29.96 1015 10 16 N/A
11:55 am 11:55 Partly Cloudy 69 20.8 59 15.1 70 70 SW 13 20 29.96 1015 10 16 N/A
12:15 pm 12:15 Sunny 70 20.9 60 15.4 71 71 SW 16 26 29.96 1015 10 16 N/A
12:35 pm 12:35 Mostly Cloudy 69 20.6 60 15.3 72 72 SW 15 24 29.97 1015 10 16 N/A
12:55 pm 12:55 Cloudy 68 19.9 60 15.6 76 76 WSW 12 19 29.98 1015 10 16 N/A
1:15 pm 13:15 Mostly Cloudy with Light Rain 68 20.1 61 16 77 77 SW 9 15 29.97 1015 10 16 N/A
1:35 pm 13:35 Cloudy with Nearby Thunderstorms 68 20.2 61 16.3 78 78 SW 7 11 29.97 1015 10 16 N/A
1:55 pm 13:55 Cloudy 69 20.6 62 16.4 77 77 SW 7 11 29.97 1015 10 16 N/A
2:15 pm 14:15 Cloudy 68 20.2 62 16.9 81 81 SW 6 9 29.96 1015 10 16 0.01 0.25
2:35 pm 14:35 Cloudy with Rain 67 19.6 64 17.6 88 88 WNW 7 11 29.98 1015 7 11 0.02 0.51
2:55 pm 14:55 Cloudy with Rain 66 19.1 64 17.9 93 93 WNW 6 9 29.97 1015 5 8 0.06 1.52
3:15 pm 15:15 Partly Cloudy with Light Rain 68 19.8 65 18.3 91 91 W 3 6 29.96 1014 10 16 0.01 0.25
3:35 pm 15:35 Cloudy with Light Rain 68 20.1 66 18.7 92 92 SSW 6 9 29.94 1014 10 16 0.01 0.25
3:55 pm 15:55 Cloudy with Light Rain 68 20.1 65 18.6 91 91 S 3 6 29.92 1013 10 16 0.01 0.25
4:15 pm 16:15 Partly Cloudy 70 21 66 19.1 89 89 SSW 6 9 29.91 1013 10 16 N/A
4:35 pm 16:35 Cloudy with Light Rain 71 21.4 67 19.3 88 88 SSW 10 17 29.90 1013 10 16 0.01 0.25
4:55 pm 16:55 Cloudy with Light Rain 70 21.1 67 19.5 91 91 SW 10 17 29.91 1013 7 11 0.01 0.25
5:15 pm 17:15 Cloudy with Light Rain 69 20.8 67 19.4 92 92 SSW 12 19 29.90 1013 7 11 0.02 0.51
5:35 pm 17:35 Partly Cloudy with Nearby Thunderstorms 71 21.7 69 20.3 92 92 SSW 9 15 29.90 1013 10 16 0.02 0.51
5:55 pm 17:55 Cloudy 70 21 67 19.4 91 91 SSW 9 15 29.89 1012 10 16 0.02 0.51
6:15 pm 18:15 Partly Cloudy 71 21.4 68 19.8 91 91 SSW 6 9 29.88 1012 10 16 N/A
6:35 pm 18:35 Mostly Cloudy 71 21.6 68 20.2 92 92 SSW 7 11 29.88 1012 10 16 N/A
6:55 pm 18:55 Cloudy 70 21.3 68 19.9 92 92 S 5 7 29.86 1011 10 16 N/A
7:15 pm 19:15 Cloudy 71 21.4 68 19.8 91 91 SSW 5 7 29.85 1011 10 16 N/A
7:35 pm 19:35 Partly Cloudy 71 21.7 68 20 90 90 SSE 5 7 29.84 1011 10 16 N/A
7:55 pm 19:55 Cloudy 70 21.1 67 19.7 92 92 SSE 3 6 29.83 1010 10 16 N/A
8:15 pm 20:15 Mostly Cloudy 70 21.1 67 19.6 91 91 S 5 7 29.81 1010 10 16 N/A
8:35 pm 20:35 Mostly Cloudy 70 21.3 68 19.8 91 91 SSE 3 6 29.80 1009 10 16 N/A
8:55 pm 20:55 Cloudy 72 22 68 19.9 88 88 SSW 8 13 29.80 1009 10 16 N/A
9:15 pm 21:15 Partly Cloudy with Mist and Fog 71 21.7 68 20 90 90 N N/A 29.79 1009 7 11 N/A
9:35 pm 21:35 Cloudy with Light Rain 70 21.3 68 19.9 92 92 SW 5 7 29.80 1009 10 16 N/A
9:55 pm 21:55 Cloudy with Light Rain 72 22.1 68 19.8 87 87 SSW 12 19 29.79 1009 10 16 0.01 0.25
10:15 pm 22:15 Cloudy with Rain 71 21.9 67 19.6 87 87 S 12 19 29.79 1009 10 16 0.02 0.51
10:35 pm 22:35 Cloudy with Rain 71 21.7 67 19.6 88 88 S 10 17 29.79 1009 7 11 0.05 1.27
10:55 pm 22:55 Cloudy with Heavy Rain 69 20.7 68 19.9 95 95 SW 13 20 29.83 1010 3 4 0.30 7.62
11:15 pm 23:15 Cloudy with Light Rain 69 20.6 68 19.8 95 95 SW 12 19 29.82 1010 7 11 0.01 0.25
11:35 pm 23:35 Cloudy with Nearby Thunderstorms 69 20.7 68 19.9 95 95 WSW 12 19 29.84 1011 5 8 0.05 1.27
11:55 pm 23:55 Cloudy 69 20.6 68 20 96 96 WSW 7 11 29.83 1010 7 11 0.16 4.06

Powered by AerisWeather